TimeCST,TemperatureF,Dew PointF,Humidity,Sea Level PressureIn,VisibilityMPH,Wind Direction,Wind SpeedMPH,Gust SpeedMPH,PrecipitationIn,Events,Conditions,WindDirDegrees,DateUTC
12:15 AM,-9999,-9999,N/A,-9999,-9999.0,North,-9999.0,-,N/A,,Unknown,0,2012-11-11 06:15:00
12:35 AM,57.2,55.4,94,29.71,10.0,SW,16.1,21.9,0.05,Thunderstorm,Unknown,230,2012-11-11 06:35:00
12:55 AM,57.2,55.4,94,29.70,10.0,WSW,12.7,-,0.12,,Overcast,250,2012-11-11 06:55:00
1:15 AM,55.4,55.4,100,29.71,10.0,NW,23.0,26.5,0.01,Thunderstorm,Overcast,310,2012-11-11 07:15:00
1:35 AM,48.2,44.6,87,29.71,10.0,NNW,18.4,26.5,0.01,,Overcast,330,2012-11-11 07:35:00
1:55 AM,46.4,42.8,87,29.76,10.0,NW,23.0,33.4,0.06,Thunderstorm,Thunderstorm,320,2012-11-11 07:55:00
2:15 AM,44.6,42.8,93,29.77,10.0,NW,24.2,32.2,0.08,,Overcast,320,2012-11-11 08:15:00
2:35 AM,44.6,41.0,87,29.73,10.0,NNW,19.6,31.1,0.11,,Overcast,330,2012-11-11 08:35:00
2:55 AM,42.8,39.2,87,29.72,10.0,North,24.2,29.9,0.11,,Overcast,350,2012-11-11 08:55:00
3:15 AM,41.0,37.4,87,29.75,10.0,NNW,19.6,27.6,N/A,,Overcast,340,2012-11-11 09:15:00
3:35 AM,41.0,37.4,87,29.80,10.0,NNW,16.1,-,N/A,,Overcast,340,2012-11-11 09:35:00
3:55 AM,41.0,37.4,87,29.78,10.0,NNW,19.6,24.2,N/A,,Overcast,340,2012-11-11 09:55:00
4:15 AM,39.2,35.6,87,29.81,10.0,NNW,18.4,25.3,0.01,,Overcast,340,2012-11-11 10:15:00
4:35 AM,37.4,35.6,93,29.80,10.0,NNW,18.4,-,0.01,,Overcast,340,2012-11-11 10:35:00
4:55 AM,37.4,33.8,87,29.81,10.0,NNW,19.6,23.0,0.01,,Overcast,330,2012-11-11 10:55:00
5:35 AM,35.6,30.2,81,29.82,10.0,NNW,20.7,27.6,N/A,,Overcast,340,2012-11-11 11:35:00
5:55 AM,33.8,30.2,87,29.84,10.0,NNW,17.3,23.0,N/A,,Overcast,330,2012-11-11 11:55:00
6:15 AM,33.8,30.2,87,29.83,10.0,North,16.1,-,N/A,,Overcast,350,2012-11-11 12:15:00
6:55 AM,33.8,28.4,81,29.87,10.0,NNW,17.3,26.5,N/A,,Overcast,340,2012-11-11 12:55:00
7:35 AM,33.8,28.4,81,29.88,10.0,North,17.3,26.5,N/A,,Overcast,350,2012-11-11 13:35:00
8:15 AM,32.0,26.6,80,29.93,10.0,NNW,20.7,27.6,N/A,,Overcast,340,2012-11-11 14:15:00
8:35 AM,32.0,26.6,80,29.92,10.0,NNW,21.9,28.8,N/A,,Overcast,330,2012-11-11 14:35:00
8:55 AM,30.2,24.8,80,29.92,10.0,NNW,20.7,26.5,N/A,,Overcast,340,2012-11-11 14:55:00
9:35 AM,30.2,24.8,80,29.95,10.0,NNW,17.3,26.5,N/A,,Overcast,340,2012-11-11 15:35:00
9:55 AM,30.2,23.0,75,29.98,10.0,NNW,17.3,26.5,N/A,,Overcast,340,2012-11-11 15:55:00
10:15 AM,30.2,23.0,75,29.98,10.0,NNW,17.3,24.2,N/A,,Overcast,340,2012-11-11 16:15:00
10:35 AM,30.2,23.0,75,29.99,10.0,NNW,17.3,-,N/A,,Overcast,330,2012-11-11 16:35:00
10:55 AM,30.2,21.2,69,30.00,10.0,NNW,20.7,-,N/A,,Overcast,330,2012-11-11 16:55:00
11:15 AM,30.2,23.0,75,29.99,10.0,NNW,20.7,26.5,N/A,,Mostly Cloudy,340,2012-11-11 17:15:00
11:35 AM,30.2,21.2,69,30.00,10.0,NNW,18.4,-,N/A,,Mostly Cloudy,340,2012-11-11 17:35:00
12:15 PM,30.2,21.2,69,30.02,10.0,NNW,15.0,25.3,N/A,,Clear,340,2012-11-11 18:15:00
12:35 PM,30.2,21.2,69,30.02,10.0,NW,20.7,26.5,N/A,,Clear,320,2012-11-11 18:35:00
12:55 PM,32.0,21.2,64,30.02,10.0,NNW,16.1,25.3,N/A,,Clear,340,2012-11-11 18:55:00
1:15 PM,32.0,21.2,64,30.02,10.0,NNW,16.1,24.2,N/A,,Clear,340,2012-11-11 19:15:00
1:35 PM,32.0,19.4,60,30.02,10.0,NNW,15.0,24.2,N/A,,Clear,330,2012-11-11 19:35:00
1:55 PM,33.8,19.4,56,30.03,10.0,NNW,15.0,-,N/A,,Clear,340,2012-11-11 19:55:00
2:15 PM,35.6,21.2,56,30.05,10.0,NNW,15.0,-,N/A,,Clear,330,2012-11-11 20:15:00
2:35 PM,35.6,21.2,56,30.04,10.0,North,15.0,19.6,N/A,,Clear,350,2012-11-11 20:35:00
2:55 PM,37.4,21.2,52,30.05,10.0,NNW,15.0,21.9,N/A,,Clear,330,2012-11-11 20:55:00
3:15 PM,37.4,21.2,52,30.05,10.0,NNW,17.3,23.0,N/A,,Clear,340,2012-11-11 21:15:00
3:35 PM,35.6,19.4,52,30.07,10.0,NNW,13.8,24.2,N/A,,Clear,330,2012-11-11 21:35:00
3:55 PM,35.6,19.4,52,30.08,10.0,NNW,16.1,24.2,N/A,,Clear,340,2012-11-11 21:55:00
4:15 PM,35.6,19.4,52,30.09,10.0,NNW,16.1,23.0,N/A,,Clear,330,2012-11-11 22:15:00
4:35 PM,35.6,17.6,48,30.10,10.0,NNW,16.1,21.9,N/A,,Clear,340,2012-11-11 22:35:00
4:55 PM,35.6,17.6,48,30.11,10.0,NNW,12.7,-,N/A,,Clear,340,2012-11-11 22:55:00
5:15 PM,33.8,15.8,48,30.13,10.0,NNW,10.4,-,N/A,,Clear,340,2012-11-11 23:15:00
5:35 PM,33.8,17.6,52,30.14,10.0,NNW,9.2,-,N/A,,Clear,330,2012-11-11 23:35:00
5:55 PM,32.0,19.4,60,30.15,10.0,NNW,8.1,-,N/A,,Clear,330,2012-11-11 23:55:00
6:15 PM,32.0,19.4,60,30.16,10.0,NNW,8.1,-,N/A,,Clear,330,2012-11-12 00:15:00
6:35 PM,30.2,19.4,64,30.18,10.0,NW,6.9,-,N/A,,Clear,310,2012-11-12 00:35:00
6:55 PM,30.2,19.4,64,30.19,10.0,NW,6.9,-,N/A,,Clear,320,2012-11-12 00:55:00
7:15 PM,30.2,19.4,64,30.20,10.0,NW,6.9,-,N/A,,Clear,310,2012-11-12 01:15:00
7:35 PM,30.2,19.4,64,30.20,10.0,NW,5.8,-,N/A,,Clear,310,2012-11-12 01:35:00
7:55 PM,28.4,21.2,74,30.21,10.0,NW,5.8,-,N/A,,Clear,310,2012-11-12 01:55:00
8:15 PM,28.4,19.4,69,30.22,10.0,NW,5.8,-,N/A,,Clear,310,2012-11-12 02:15:00
8:35 PM,30.2,19.4,64,30.23,10.0,WNW,5.8,-,N/A,,Clear,300,2012-11-12 02:35:00
8:55 PM,28.4,19.4,69,30.23,10.0,NW,4.6,-,N/A,,Clear,310,2012-11-12 02:55:00
9:15 PM,28.4,19.4,69,30.24,10.0,NW,5.8,-,N/A,,Clear,310,2012-11-12 03:15:00
9:35 PM,28.4,19.4,69,30.25,10.0,NW,5.8,-,N/A,,Clear,310,2012-11-12 03:35:00
9:55 PM,28.4,19.4,69,30.26,10.0,NW,4.6,-,N/A,,Clear,320,2012-11-12 03:55:00
10:15 PM,28.4,19.4,69,30.26,10.0,NW,3.5,-,N/A,,Clear,320,2012-11-12 04:15:00
10:35 PM,28.4,19.4,69,30.26,10.0,NW,3.5,-,N/A,,Clear,310,2012-11-12 04:35:00
10:55 PM,28.4,21.2,74,30.27,10.0,WNW,3.5,-,N/A,,Clear,290,2012-11-12 04:55:00
11:15 PM,26.6,19.4,74,30.27,10.0,West,5.8,-,N/A,,Clear,280,2012-11-12 05:15:00
11:35 PM,26.6,21.2,80,30.28,10.0,West,5.8,-,N/A,,Clear,270,2012-11-12 05:35:00
11:55 PM,26.6,19.4,74,30.28,10.0,West,5.8,-,N/A,,Clear,280,2012-11-12 05:55:00